This is the latest recevied weather packets stored in our database for station/object KE8DDT-7. If no packets are shown the sender has not sent any weather packets the latest 10 day(s).
| Time | Temp. | Humidity | Pressure | Rain* | Wind** | Luminosity | Snow |
|---|---|---|---|---|---|---|---|
| 1777729729 | 5.56° C | 61% | 1009.8 hPa | 0 mm | - | 621 W/m² | - |
| 1777729429 | 5° C | 60% | 1009.9 hPa | 0 mm | - | 598 W/m² | - |
| 1777729129 | 5° C | 62% | 1009.9 hPa | 0 mm | - | 589 W/m² | - |
| 1777728829 | 5° C | 63% | 1009.9 hPa | 0 mm | - | 526 W/m² | - |
| 1777728530 | 5° C | 64% | 1010 hPa | 0 mm | - | 559 W/m² | - |
| 1777728229 | 5° C | 64% | 1010 hPa | 0 mm | - | 536 W/m² | - |
| 1777727901 | 5° C | 64% | 1010.1 hPa | 0 mm | - | 527 W/m² | - |
| 1777727438 | 4.44° C | 65% | 1010.1 hPa | 0 mm | - | 489 W/m² | - |
| 1777727138 | 4.44° C | 66% | 1010.1 hPa | 0 mm | - | 466 W/m² | - |
| 1777726838 | 4.44° C | 66% | 1010.1 hPa | 0 mm | - | 446 W/m² | - |
| 1777726538 | 3.89° C | 67% | 1010 hPa | 0 mm | - | 429 W/m² | - |
| 1777726238 | 3.89° C | 68% | 1010 hPa | 0 mm | - | 413 W/m² | - |
| 1777725938 | 3.89° C | 68% | 1009.9 hPa | 0 mm | - | 397 W/m² | - |
| 1777725638 | 3.33° C | 70% | 1009.9 hPa | 0 mm | - | 380 W/m² | - |
| 1777725117 | 2.78° C | 70% | 1009.9 hPa | 0 mm | - | 350 W/m² | - |
| 1777724817 | 2.78° C | 71% | 1009.9 hPa | 0 mm | - | 334 W/m² | - |
| 1777724517 | 2.22° C | 73% | 1009.9 hPa | 0 mm | - | 315 W/m² | - |
| 1777724217 | 2.22° C | 73% | 1009.9 hPa | 0 mm | - | 299 W/m² | - |
| 1777723479 | 1.67° C | 74% | 1009.7 hPa | 0 mm | - | 42 W/m² | - |
| 1777723178 | 1.67° C | 75% | 1009.6 hPa | 0 mm | - | 39 W/m² | - |
| 1777722879 | 1.11° C | 75% | 1009.7 hPa | 0 mm | - | 37 W/m² | - |
| 1777721985 | 1.11° C | 76% | 1009.6 hPa | 0 mm | - | 33 W/m² | - |
| 1777721686 | 1.11° C | 76% | 1009.6 hPa | 0 mm | - | 33 W/m² | - |
| 1777721385 | 0.56° C | 76% | 1009.6 hPa | 0 mm | - | 32 W/m² | - |
| 1777720786 | 0.56° C | 76% | 1009.5 hPa | 0 mm | - | 28 W/m² | - |
* Rain latest hour (hover to see other rain measurements)
** Current wind speed in m/s (hover to see current wind gust speed)